Location: Unspecified
(0.0000°N, 0.0000°E)
Time: 21:05:40
(UTC+00:00)

Hubble Space Telescope - Pass Details

Date: 19 January 2020
Orbit: 536 x 540 km, 28.5° (Epoch: 24 February)

Event Time Altitude Azimuth Distance (km) Brightness Sun altitude
Rises 19:18:20 0° 300° (WNW) 2,669 4.9 -15.8°
Reaches altitude 10° 19:20:35 10° 299° (WNW) 1,780 4.0 -16.4°
Maximum altitude 19:24:43 87° 210° (SSW) 538 0.7 -17.3°
Enters shadow 19:27:05 25° 122° (ESE) 1,113 2.0 -17.9°
